This demonstration page uses our WeatherBlox Daily Observations layout. Learn more.

39.29038, -76.61219

Hourly Observations for May 15, 2019

Temp ( °F °C ) Dew Point ( °F °C ) Humidity (%) Winds ( mph kmh ) Pressure ( in mb ) Visibility ( mi km ) Precip ( " mm )
12:54 am 00:54 undefined 51 10.6 43 6.1 74 74 undefined N/A 29.94 1014 N/A 0 0
1:54 am 01:54 undefined 50 10 42 5.6 74 74 undefined N/A 29.94 1014 N/A 0 0
2:54 am 02:54 undefined 50 10 42 5.6 74 74 undefined N/A 29.94 1014 N/A 0 0
3:54 am 03:54 undefined 49 9.4 41 5 74 74 undefined N/A 29.93 1014 N/A 0 0
4:54 am 04:54 undefined 49 9.4 41 5 74 74 undefined N/A 29.94 1014 N/A 0 0
5:54 am 05:54 undefined 49 9.4 41 5 74 74 undefined N/A 29.93 1014 N/A 0 0
6:54 am 06:54 undefined 51 10.6 42 5.6 71 71 undefined N/A 29.95 1014 N/A 0 0
7:54 am 07:54 undefined 56 13.3 43 6.1 62 62 undefined N/A 30 1016 N/A 0 0
8:54 am 08:54 undefined 60 15.6 43 6.1 53 53 undefined N/A 29.99 1016 N/A 0 0
9:54 am 09:54 undefined 63 17.2 42 5.6 47 47 undefined N/A 29.99 1016 N/A 0 0
10:54 am 10:54 undefined 67 19.4 41 5 39 39 undefined N/A 29.97 1015 N/A 0 0
11:54 am 11:54 undefined 69 20.6 38 3.3 32 32 undefined N/A 29.96 1014 N/A 0 0
12:54 pm 12:54 undefined 72 22.2 38 3.3 29 29 undefined N/A 29.93 1014 N/A 0 0
1:54 pm 13:54 undefined 73 22.8 39 3.9 29 29 undefined N/A 29.9 1013 N/A 0 0
2:54 pm 14:54 undefined 74 23.3 40 4.4 29 29 undefined N/A 29.88 1012 N/A 0 0
3:54 pm 15:54 undefined 74 23.3 41 5 31 31 undefined N/A 29.87 1011 N/A 0 0
4:54 pm 16:54 undefined 72 22.2 41 5 33 33 undefined N/A 29.85 1011 N/A 0 0
5:54 pm 17:54 undefined 73 22.8 40 4.4 30 30 undefined N/A 29.86 1011 N/A 0 0
6:54 pm 18:54 undefined 71 21.7 39 3.9 31 31 undefined N/A 29.85 1011 N/A 0 0
7:54 pm 19:54 undefined 70 21.1 40 4.4 34 34 undefined N/A 29.87 1012 N/A 0 0
8:54 pm 20:54 undefined 68 20 40 4.4 36 36 undefined N/A 29.89 1012 N/A 0 0
9:54 pm 21:54 undefined 67 19.4 41 5 39 39 undefined N/A 29.9 1013 N/A 0 0
10:54 pm 22:54 undefined 66 18.9 42 5.6 42 42 undefined N/A 29.91 1013 N/A 0 0
11:54 pm 23:54 undefined 64 17.8 42 5.6 45 45 undefined N/A 29.9 1013 N/A 0 0

Powered by AerisWeather